NOAA 16 DEB

Satellite information

Favourite Embed

Satellite Type and Status

DEBRISIN ORBIT

Key statistics

Satellite NOAA 16 DEB at a glance.

Uptime

9165

Days in orbit

Revolutions

≈ 14.5

Per day

Orbit

SSO

Sun Synchronous Orbit

Inclination

99.0

Latest

Satellite identification and parameters

Extended collection of information and parameters for NOAA 16 DEB.

Object identification

Identified? True

Debris? True

Object name: NOAA 16 DEB

International designator: 2000-055EA

Object number (NORAD): 41221

Object ID (CCSDS): 41221

Country: UNITED STATES OF AMERICA (US)

Current information (Y/N): Y

RCS size: SMALL

Orbital parameters

Period: 99.333 minutes

Inclination: 99.008 deg

SMA: 7104.861 km

Apoapsis: 757.392 km

Periapsis: 696.061 km

RAAN: 159.8239 deg

Eccentricy: 0.00431619

Argument of periapsis: 52.7684 deg

Mean anomaly: 307.7434 deg

Mean motion: 14.49670639 rev/day

Mean motion (dot): 0.00007167 rev/day2

B* drag term: 0.0018531404 1/REarth

Two-line elements (TLE)

Creation date: Oct. 24, 2025, 6:33 p.m.

Reference frame: TEME

Reference center: EARTH

Epoch: Oct. 24, 2025, 1:17 a.m. UTC

TLE line 0: 0 NOAA 16 DEB

TLE line 1: 1 41221U 00055EA 25297.05362389 .00007167 00000-0 18531-2 0 9992

TLE line 2: 2 41221 99.0080 159.8239 0043162 52.7684 307.7434 14.49670639515090

Live tracking on map

Real-time ground track for satellite NOAA 16 DEB.

In-orbit conjunctions

A list of the most updated potential collisions computed for object NOAA 16 DEB.

Target Orbit TCA Probability of collision Miss distance Type
COSMOS 2251 DEB LEO 2025-10-17 12:58:52 0.0001485288 174.0 (m) DEBRIS
CZ-6A DEB LEO 2024-11-23 06:34:56 0.0001793543 502.0 (m) DEBRIS

Associated space launch

The NOAA K, L and M POES satellites begin the fifth generation of improved environmental monitoring in support of NOAA missions. The instrument payload has significant improvements and additions/deletions. The instrument changes have effected the spacecraft subsystems and data formats.

NOAA 16 DEB was lifted into orbit during the mission ‘Titan II SLV | NOAA 16’, on board a Titan II SLV space rocket.

The launch took place on Sept. 21, 2000, 10:22 a.m. from Space Launch Complex 4W.

For more information about the launch, click the button.

Launch to space Titan II SLV | NOAA 16
Titan II SLV | NOAA 16

Agency: N/A

Status: Launch Successful

Launch date: Sept. 21, 2000, 10:22 a.m. UTC

Rocket: Titan II SLV

Launch pad: Space Launch Complex 4W

Location: Vandenberg SFB, CA, USA

...

Latest news about this satellite

There are no fresh news available about this satellite. Check back as we update our databases every day.


Newsletter sign-up

Weekly statistics, charts and insights to help you stay on top of the space industry.